Tracking 30058 objects as of 9-Dec-2024
HD Live streaming from Space Station
objects crossing your sky now

IRIDIUM 24

Track IRIDIUM 24 now!
10-day predictions
IRIDIUM 24 is classified as:


NORAD ID: 25105
Int'l Code: 1997-082B
Perigee: 752.0 km
Apogee: 768.0 km
Inclination: 86.4 °
Period: 99.9 minutes
Semi major axis: 7130 km
RCS: 4.2836 m2 (large)
Launch date: December 20, 1997
Source: United States (US)
Launch site: AIR FORCE WESTERN TEST RANGE (AFWTR)
Your satellite tracking list
Your tracking list is empty




NASA's NSSDC Master Catalog

Two Line Element Set (TLE):
1 25105U 97082B   24343.89002417  .00001246  00000-0  37605-3 0  9993
2 25105  86.3922 160.9635 0011222 357.2239   2.8897 14.41719833415795
Source of the keplerian elements: AFSPC